Weather History for LTBF - September, 2013

Change the Weather History Date:

Saturday, September 28, 2013

  Actual Average Record
Temperature  
Mean Temperature 71 °F -  
Max Temperature 85 °F 72 °F 100 °F (2004)
Min Temperature 57 °F 51 °F 42 °F (1997)
Cooling Degree Days 6    
Growing Degree Days 21 (Base 50)    
Moisture  
Dew Point 51 °F    
Average Humidity 54    
Maximum Humidity 88    
Minimum Humidity 13    
Precipitation  
Precipitation 0.00 in 0.05 in - ()
Sea Level Pressure  
Sea Level Pressure 29.94 in    
Wind  
Wind Speed 4 mph ()    
Max Wind Speed 9 mph    
Max Gust Speed -    
Visibility 6.2 miles    
Events      
Averages and records for this station are not official NWS values.
T = Trace of Precipitation, MM = Missing Value Source: Averaged Metar Reports

Daily Weather History Graph

Daily Weather History Graph

Search for Another Location

Airport or City:

Trip Planner

Search our weather history database for the weather conditions in past years. The results will help you decide how hot, cold, wet, or windy it might be!

Date:

Astronomy

Sep. 28, 2013 Rise Set
Actual Time 7:01 AM EEST 6:55 PM EEST
Civil Twilight 6:34 AM EEST 7:22 PM EEST
Nautical Twilight 6:03 AM EEST 7:53 PM EEST
Astronomical Twilight 5:31 AM EEST 8:25 PM EEST
Moon 12:32 AM EEST (9/28) 3:00 PM EEST (9/28)
Length of Visible Light 12h 47m
Length of Day
11h 54m
Last Quarter, 39% of the Moon is Illuminated
Sep 28
Last Quarter
Oct 5
New
Oct 12
First Quarter
Oct 19
Full
Oct 27
Last Quarter

Hourly Weather History & Observations

Time (EEST) Temp. Dew Point Humidity Pressure Visibility Wind Dir Wind Speed Gust Speed Precip Events Conditions
12:50 AM 66.2 °F 57.2 °F 73% 29.95 in 6.2 mi NNW 6.9 mph - N/A   Partly Cloudy
1:50 AM 66.2 °F 57.2 °F 73% 29.95 in 6.2 mi NNW 8.1 mph - N/A   Partly Cloudy
2:50 AM 64.4 °F 57.2 °F 77% 29.95 in 6.2 mi North 6.9 mph - N/A   Partly Cloudy
3:00 AM 65 °F 57 °F 67% 29.96 in 6 mi North 6.9 mph - -   Scattered Clouds
3:50 AM 64.4 °F 55.4 °F 73% 29.95 in 6.2 mi North 4.6 mph - N/A   Partly Cloudy
4:50 AM 62.6 °F 55.4 °F 77% 29.95 in 6.2 mi Calm Calm - N/A   Partly Cloudy
5:50 AM 59.0 °F 53.6 °F 82% 29.95 in 6.2 mi Calm Calm - N/A   Partly Cloudy
6:50 AM 57.2 °F 53.6 °F 88% 29.95 in 6.2 mi Variable 2.3 mph - N/A   Partly Cloudy
7:50 AM 59.0 °F 55.4 °F 88% 29.95 in 6.2 mi WSW 1.2 mph - N/A   Partly Cloudy
8:50 AM 60.8 °F 55.4 °F 82% 29.98 in 6.2 mi Calm Calm - N/A   Partly Cloudy
9:00 AM 62 °F 55 °F 70% 29.97 in 6 mi Calm Calm - -   Scattered Clouds
9:50 AM 68.0 °F 57.2 °F 68% 29.98 in 6.2 mi Calm Calm - N/A   Partly Cloudy
10:50 AM 71.6 °F 55.4 °F 57% 29.98 in 6.2 mi Variable 1.2 mph - N/A   Partly Cloudy
11:50 AM 73.4 °F 53.6 °F 50% 29.98 in 6.2 mi Variable 3.5 mph - N/A   Partly Cloudy
12:50 PM 78.8 °F 44.6 °F 30% 29.95 in 6.2 mi Variable 3.5 mph - N/A   Partly Cloudy
1:50 PM 80.6 °F 41.0 °F 24% 29.92 in 6.2 mi NNE 3.5 mph - N/A   Partly Cloudy
2:50 PM 82.4 °F 41.0 °F 23% 29.92 in 6.2 mi NE 4.6 mph - N/A   Partly Cloudy
3:00 PM 83 °F 40 °F 13% 29.91 in 6 mi NE 4.6 mph - -   Scattered Clouds
3:50 PM 84.2 °F 41.0 °F 22% 29.89 in 6.2 mi NE 4.6 mph - N/A   Partly Cloudy
4:50 PM 84.2 °F 42.8 °F 23% 29.89 in 6.2 mi North 4.6 mph - N/A   Partly Cloudy
5:50 PM 82.4 °F 46.4 °F 28% 29.89 in 6.2 mi NNE 9.2 mph - N/A   Partly Cloudy
6:50 PM 77.0 °F 42.8 °F 29% 29.89 in - North 8.1 mph - N/A   Clear
7:50 PM 73.4 °F 48.2 °F 41% 29.92 in - North 8.1 mph - N/A   Clear
8:50 PM 71.6 °F 50.0 °F 46% 29.95 in - North 6.9 mph - N/A   Clear
9:00 PM 72 °F 49 °F 33% 29.95 in 6 mi North 6.9 mph - -  
9:50 PM 66.2 °F 50.0 °F 56% 29.95 in - NW 2.3 mph - N/A   Clear
10:50 PM 66.2 °F 50.0 °F 56% 29.95 in - WNW 4.6 mph - N/A   Clear
11:50 PM 60.8 °F 50.0 °F 68% 29.98 in - Calm Calm - N/A   Clear